Flight Track Log - Related Links

Times and Time Zones

All times are in EDT time to prevent confusion due to time zone crossing. See the TCF3479 flight status page for this flight to view local times or setup timezone preferences in your user account.

Time Position Orientation Groundspeed Altitude Reporting Facility
EDT Latitude Longitude Course Direction KTS MPH feet Rate Location/Type
10:06AM 40.0061 -82.9789 273° West 178 205 3,500  Level Indianapolis Center
10:07AM 40.0078 -83.0669 271° West 212 244 6,400 3,048 Climbing Indianapolis Center
10:08AM 40.0108 -83.1600 272° West 252 290 9,900 2,661 Climbing Indianapolis Center
10:09AM 40.0153 -83.2639 273° West 283 326 11,900 2,371 Climbing Indianapolis Center
10:10AM 40.0258 -83.3772 277° West 313 360 14,800 3,097 Climbing Indianapolis Center
10:11AM 40.0761 -83.4994 298° West 322 371 18,300 2,710 Climbing Indianapolis Center
10:12AM 40.1183 -83.6067 297° West 329 379 20,400 2,081 Climbing Indianapolis Center
10:13AM 40.1622 -83.7194 297° West 345 397 22,600 2,081 Climbing Indianapolis Center
10:14AM 40.2081 -83.8353 297° West 355 409 24,700 1,645 Climbing Indianapolis Center
10:15AM 40.2517 -83.9517 296° West 357 411 26,000 629 Climbing Indianapolis Center
10:16AM 40.3136 -84.0897 301° West 365 420 26,000  Level Indianapolis Center
10:17AM 40.3803 -84.1953 310° West 371 427 26,000  Level Indianapolis Center
10:18AM 40.4444 -84.3000 309° West 372 428 26,000  Level Indianapolis Center
10:19AM 40.5083 -84.4058 308° West 372 428 26,000  Level Indianapolis Center
10:21AM 40.5719 -84.5106 309° West 371 427 26,000  Level Indianapolis Center
10:22AM 40.6350 -84.6128 309° West 366 421 26,000  Level Indianapolis Center
10:22AM 40.6914 -84.7069 308° West 364 419 26,000  Level Chicago Center
10:23AM 40.7536 -84.8089 309° West 360 414 26,000  Level Chicago Center
10:24AM 40.8156 -84.9117 309° West 360 414 26,000  Level Chicago Center
10:25AM 40.8767 -85.0158 308° West 360 414 26,000  Level Chicago Center
10:27AM 40.9500 -85.1389 308° West 359 413 26,000  Level Chicago Center
10:28AM 41.0136 -85.2369 311° West 355 409 26,000 -194 Level Chicago Center
10:29AM 41.0800 -85.3336 312° West 355 409 25,600 -435 Descending Chicago Center
10:30AM 41.1444 -85.4283 312° West 349 402 25,100 -290 Descending Chicago Center
10:31AM 41.1919 -85.5375 300° West 351 404 25,000 -48 Descending Chicago Center
10:32AM 41.2222 -85.6617 288° West 350 403 25,000  Level Chicago Center
10:33AM 41.2572 -85.8078 288° West 348 400 25,000  Level Chicago Center
10:34AM 41.2753 -85.9342 281° West 348 400 25,000 -484 Level Chicago Center
10:35AM 41.2875 -86.0639 277° West 352 405 24,000 -1,065 Descending Chicago Center
10:36AM 41.3094 -86.1858 284° West 342 394 22,800 -1,161 Descending Chicago Center
10:37AM 41.3314 -86.3050 284° West 336 387 21,600 -1,161 Descending Chicago Center
10:38AM 41.3517 -86.4236 283° West 331 381 20,400 -1,161 Descending Chicago Center
10:39AM 41.3722 -86.5403 283° West 326 375 19,200 -1,258 Descending Chicago Center
10:40AM 41.3967 -86.6792 283° West 323 372 17,800 -1,210 Descending Chicago Center
10:41AM 41.4331 -86.7867 294° West 308 354 16,700 -1,113 Descending Chicago Center
10:42AM 41.4694 -86.8983 294° West 307 353 15,500 -1,065 Descending Chicago Center
10:43AM 41.5033 -87.0011 294° West 303 349 14,500 -1,113 Descending Chicago Center
10:44AM 41.5406 -87.1164 293° West 314 361 13,200 -1,161 Descending Chicago Center
10:45AM 41.5753 -87.2239 293° West 315 362 12,100 -1,016 Descending Chicago Center
10:46AM 41.6272 -87.3039 311° West 259 298 11,100 -919 Descending Chicago Center
10:47AM 41.6758 -87.3697 315° West 253 291 10,200 -532 Descending Chicago Center
10:48AM 41.7264 -87.4314 318° Northwest 251 289 10,000 -97 Descending Chicago Center
10:49AM 41.7831 -87.4950 320° Northwest 250 288 10,000 -387 Level Chicago Center
10:50AM 41.8239 -87.5650 308° West 250 288 9,200 -1,403 Descending Chicago Center
10:51AM 41.8478 -87.6583 289° West 249 287 7,100 -1,073 Descending Chicago Center
10:52AM 41.8689 -87.7447 288° West 248 285 7,000 -49 Descending Chicago Center
10:53AM 41.8842 -87.8425 282° West 253 291 7,000  Level Chicago Center
10:54AM 41.8842 -87.9383 270° West 255 293 7,000 -48 Level Chicago Center
10:55AM 41.8825 -88.0189 268° West 219 252 6,900 -629 Descending Chicago Center
10:56AM 41.8842 -88.0878 272° West 177 204 5,700 -1,268 Descending Chicago Center
10:57AM 41.8842 -88.1528 270° West 175 201 4,300 -878 Descending Chicago Center
10:59AM 41.9186 -88.1858 324° Northwest 174 200 3,900 -194 Descending Chicago Center
11:00AM 41.9572 -88.1611 25° Northeast 175 201 3,900 -387 Level Chicago Center
11:01AM 41.9644 -88.0958 82° East 183 211 3,100 -927 Descending Chicago Center
11:02AM 41.9639 -88.0250 91° East 179 206 2,000 -927 Descending Chicago Center
11:03AM 41.9650 -87.9644 89° East 165 190 1,200 -532 Descending Chicago Center
11:04AM 41.9650 -87.9111 90° East 156 180 900 -290 Descending Chicago Center
11:06AM 41.9667 -87.9000 124° Southeast  Level FlightAware Approximate

Login

Don't have an account? Register now (free) for customized features, flight alerts, and more!